Date String (YYYY-MM-DD hh:mm:ss) UTC,Instrument flags,absolute air pressure of the measurement (hPa),sample flow rate (lpm),inlet stack bypass flow (lpm),air temperature of the measurement (°C),ambient temperature measured by the external sensor (°C),aerosol sample conditioner tube jacket temperature (°C),OPC LED temperature (°C),internal box temperature (°C),relative humidity of the measurement (%),span deviation,mass concentration of particles derived from Lorenz-Mie calculation of OPC scattering (μg/m³),mass concentration of particles derived from Lorenz-Mie calculation of OPC scattering (μg/m³),mass concentration of particles derived from Lorenz-Mie calculation of OPC scattering (μg/m³)
DateTimeUTC,F1_M11,P_M11,Q1_M11,Q2_M11,T1_M11,T2_M11,T3_M11,T4_M11,T5_M11,U1_M11,ZSPAN_M11,X0_M11,X2_M11,X1_M11
2024-05-14 18:00:00,SystemResetWarning,0824.1,5.01,000.00,024.1,023.0,000.0,032.4,025.9,015.9,0000.0,0008.70,0003.59,0002.69
2024-05-14 18:01:00,SystemResetWarning,0824.2,4.99,000.00,024.2,023.3,000.0,032.4,026.0,015.9,0000.0,0008.90,0003.63,0002.69
2024-05-14 18:02:00,SystemResetWarning,0824.2,4.99,000.00,024.3,023.5,000.0,032.4,026.1,016.0,0000.0,0008.55,0003.63,0002.70
2024-05-14 18:03:00,SystemResetWarning,0824.2,5.00,000.00,024.4,023.7,000.0,032.4,026.3,016.1,0000.0,0007.63,0003.61,0002.69
2024-05-14 18:04:00,SystemResetWarning,0824.1,5.00,000.00,024.4,023.9,000.0,032.5,026.4,016.6,0000.0,0007.63,0003.59,0002.68
2024-05-14 18:05:00,SystemResetWarning,0824.1,4.99,000.00,024.5,023.3,000.0,032.5,026.1,015.9,0000.0,0007.39,0003.57,0002.69
2024-05-14 18:06:00,SystemResetWarning,0824.0,5.00,000.00,024.1,021.4,000.0,032.6,025.0,015.4,0000.0,0007.14,0003.59,0002.68
2024-05-14 18:07:00,SystemResetWarning,0823.9,5.01,000.00,023.9,021.3,000.0,032.6,024.9,015.9,0000.0,0007.22,0003.60,0002.69
2024-05-14 18:08:00,SystemResetWarning,0823.9,5.00,000.00,023.9,021.8,000.0,032.5,025.1,014.7,0000.0,0007.26,0003.60,0002.71
2024-05-14 18:09:00,SystemResetWarning,0824.0,4.99,000.00,023.9,022.2,000.0,032.4,025.4,014.8,0000.0,0007.73,0003.66,0002.74
2024-05-14 18:10:00,SystemResetWarning,0824.0,4.99,000.00,024.0,022.6,000.0,032.4,025.5,014.7,0000.0,0007.84,0003.66,0002.73
2024-05-14 18:11:00,SystemResetWarning,0824.0,5.00,000.00,024.0,022.9,000.0,032.3,025.7,015.0,0000.0,0007.88,0003.65,0002.73
2024-05-14 18:12:00,SystemResetWarning,0824.0,5.01,000.00,024.1,023.2,000.0,032.3,025.9,015.7,0000.0,0007.79,0003.62,0002.73
2024-05-14 18:13:00,SystemResetWarning,0823.9,5.00,000.00,024.2,023.4,000.0,032.3,026.0,017.6,0000.0,0007.82,0003.61,0002.73
2024-05-14 18:14:00,SystemResetWarning,0823.9,5.00,000.00,024.3,023.6,000.0,032.3,026.2,016.7,0000.0,0007.79,0003.60,0002.74
2024-05-14 18:15:00,SystemResetWarning,0824.0,4.99,000.00,024.4,023.8,000.0,032.3,026.3,016.0,0000.0,0007.94,0003.62,0002.75
2024-05-14 18:16:00,SystemResetWarning,0824.0,4.99,000.00,024.4,023.6,000.0,032.4,026.1,015.6,0000.0,0008.17,0003.62,0002.75
2024-05-14 18:17:00,SystemResetWarning,0823.9,5.00,000.00,024.1,021.7,000.0,032.5,025.1,015.9,0000.0,0008.20,0003.62,0002.75
2024-05-14 18:18:00,SystemResetWarning,0823.9,5.02,000.00,023.8,021.1,000.0,032.5,024.8,016.2,0000.0,0008.09,0003.59,0002.74
2024-05-14 18:19:00,SystemResetWarning,0823.8,5.00,000.00,023.8,021.7,000.0,032.4,025.0,016.2,0000.0,0007.96,0003.58,0002.76
2024-05-14 18:20:00,SystemResetWarning,0824.0,4.99,000.00,023.8,022.1,000.0,032.3,025.2,016.1,0000.0,0007.67,0003.54,0002.75
2024-05-14 18:21:00,SystemResetWarning,0824.0,5.00,000.00,023.9,022.4,000.0,032.2,025.5,016.0,0000.0,0007.43,0003.52,0002.76
2024-05-14 18:22:00,SystemResetWarning,0824.0,5.00,000.00,024.0,022.8,000.0,032.2,025.6,016.1,0000.0,0007.42,0003.54,0002.77
2024-05-14 18:23:00,SystemResetWarning,0824.0,5.00,000.00,024.0,023.1,000.0,032.2,025.8,015.8,0000.0,0007.71,0003.56,0002.77
2024-05-14 18:24:00,SystemResetWarning,0824.0,5.00,000.00,024.1,023.4,000.0,032.2,026.0,016.0,0000.0,0007.81,0003.56,0002.79
2024-05-14 18:25:00,SystemResetWarning,0824.0,5.00,000.00,024.2,023.6,000.0,032.2,026.1,016.0,0000.0,0007.79,0003.58,0002.79
2024-05-14 18:26:00,SystemResetWarning,0824.0,5.01,000.00,024.3,023.8,000.0,032.3,026.2,015.7,0000.0,0007.57,0003.55,0002.80
2024-05-14 18:27:00,SystemResetWarning,0824.0,5.00,000.00,024.4,023.9,000.0,032.3,026.4,015.8,0000.0,0007.24,0003.54,0002.81
2024-05-14 18:28:00,SystemResetWarning,0824.0,4.99,000.00,024.4,023.2,000.0,032.4,025.9,015.8,0000.0,0007.30,0003.54,0002.81
2024-05-14 18:29:00,SystemResetWarning,0823.9,5.00,000.00,024.0,021.3,000.0,032.4,024.8,016.5,0000.0,0007.36,0003.57,0002.83
2024-05-14 18:30:00,SystemResetWarning,0824.0,5.02,000.00,023.8,021.2,000.0,032.4,024.7,016.1,0000.0,0007.63,0003.57,0002.82
2024-05-14 18:31:00,SystemResetWarning,0824.0,4.99,000.00,023.7,021.7,000.0,032.3,024.9,016.5,0000.0,0007.60,0003.56,0002.81
2024-05-14 18:32:00,SystemResetWarning,0824.1,5.00,000.00,023.8,022.1,000.0,032.2,025.2,017.4,0000.0,0008.15,0003.58,0002.82
2024-05-14 18:33:00,SystemResetWarning,0824.1,5.00,000.00,023.8,022.5,000.0,032.2,025.4,019.3,0000.0,0008.16,0003.57,0002.82
2024-05-14 18:34:00,SystemResetWarning,0824.1,4.99,000.00,023.9,022.8,000.0,032.1,025.6,019.7,0000.0,0007.80,0003.53,0002.83
2024-05-14 18:35:00,SystemResetWarning,0824.1,4.99,000.00,024.0,023.1,000.0,032.1,025.8,020.3,0000.0,0007.45,0003.49,0002.80
2024-05-14 18:36:00,SystemResetWarning,0824.1,4.99,000.00,024.1,023.3,000.0,032.1,026.0,020.8,0000.0,0007.39,0003.45,0002.77
2024-05-14 18:37:00,SystemResetWarning,0824.0,5.01,000.00,024.2,023.5,000.0,032.2,026.1,020.6,0000.0,0007.47,0003.45,0002.75
2024-05-14 18:38:00,SystemResetWarning,0824.1,5.00,000.00,024.3,023.7,000.0,032.2,026.2,020.0,0000.0,0007.39,0003.42,0002.73
2024-05-14 18:39:00,SystemResetWarning,0824.2,4.98,000.00,024.4,023.9,000.0,032.2,026.3,019.8,0000.0,0007.35,0003.41,0002.71
2024-05-14 18:40:00,SystemResetWarning,0824.1,5.00,000.00,024.3,022.7,000.0,032.3,025.6,019.4,0000.0,0007.39,0003.37,0002.70
2024-05-14 18:41:00,SystemResetWarning,0824.0,5.00,000.00,023.9,021.2,000.0,032.4,024.8,019.6,0000.0,0007.00,0003.35,0002.69
2024-05-14 18:42:00,SystemResetWarning,0824.0,5.02,000.00,023.8,021.5,000.0,032.4,024.8,020.6,0000.0,0006.82,0003.31,0002.67
2024-05-14 18:43:00,SystemResetWarning,0824.0,5.00,000.00,023.8,021.9,000.0,032.3,025.1,021.1,0000.0,0005.94,0003.27,0002.65
2024-05-14 18:44:00,SystemResetWarning,0824.0,5.00,000.00,023.8,022.2,000.0,032.2,025.3,020.3,0000.0,0005.98,0003.28,0002.64
2024-05-14 18:45:00,SystemResetWarning,0824.1,5.00,000.00,023.9,022.6,000.0,032.1,025.5,021.1,0000.0,0007.57,0003.29,0002.63
2024-05-14 18:46:00,SystemResetWarning,0824.2,5.00,000.00,024.0,022.9,000.0,032.1,025.7,019.5,0000.0,0007.56,0003.29,0002.63
2024-05-14 18:47:00,SystemResetWarning,0824.1,4.99,000.00,024.1,023.2,000.0,032.1,025.9,020.1,0000.0,0007.66,0003.32,0002.65
2024-05-14 18:48:00,SystemResetWarning,0824.2,5.00,000.00,024.1,023.4,000.0,032.1,026.0,020.4,0000.0,0008.12,0003.31,0002.65
2024-05-14 18:49:00,SystemResetWarning,0824.2,4.99,000.00,024.2,023.6,000.0,032.2,026.2,020.4,0000.0,0008.70,0003.30,0002.67
2024-05-14 18:50:00,SystemResetWarning,0824.2,5.00,000.00,024.3,023.8,000.0,032.2,026.3,018.9,0000.0,0008.82,0003.30,0002.66
2024-05-14 18:51:00,SystemResetWarning,0824.2,5.00,000.00,024.4,024.0,000.0,032.2,026.4,018.8,0000.0,0009.40,0003.29,0002.65
2024-05-14 18:52:00,SystemResetWarning,0824.1,4.99,000.00,024.4,023.2,000.0,032.3,025.9,018.4,0000.0,0009.63,0003.29,0002.63
2024-05-14 18:53:00,SystemResetWarning,0824.0,5.00,000.00,024.0,021.4,000.0,032.4,024.9,018.9,0000.0,0009.66,0003.29,0002.59
2024-05-14 18:54:00,SystemResetWarning,0824.0,5.01,000.00,023.8,021.3,000.0,032.4,024.8,019.7,0000.0,0009.62,0003.27,0002.55
2024-05-14 18:55:00,SystemResetWarning,0824.1,5.01,000.00,023.8,021.8,000.0,032.3,025.0,019.3,0000.0,0009.46,0003.23,0002.51
2024-05-14 18:56:00,SystemResetWarning,0824.1,4.99,000.00,023.8,022.1,000.0,032.2,025.2,019.4,0000.0,0008.54,0003.21,0002.45
2024-05-14 18:57:00,SystemResetWarning,0824.0,4.99,000.00,023.9,022.5,000.0,032.2,025.5,019.0,0000.0,0008.54,0003.19,0002.40
2024-05-14 18:58:00,SystemResetWarning,0824.1,5.01,000.00,023.9,022.8,000.0,032.2,025.6,019.4,0000.0,0008.52,0003.15,0002.35
2024-05-14 18:59:00,SystemResetWarning,0824.2,5.01,000.00,024.0,023.1,000.0,032.2,025.7,018.6,0000.0,0008.00,0003.13,0002.29
